Location: Unspecified
(0.0000°N, 0.0000°E)
Time: 17:45:23
(UTC+00:00)

STARLINK-36479 - Pass Details

Date: 11 January 2026
Orbit: 253 x 257 km, 43.0° (Epoch: 11 January)

Event Time Altitude Azimuth Distance (km) Brightness Sun altitude
Rises 18:41:01 0° 284° (WNW) 1,824 6.3 -7.7°
Reaches altitude 10° 18:43:57 10° 241° (WSW) 1,025 5.7 -8.3°
Maximum altitude 18:44:34 11° 225° (SW) 989 5.2 -8.5°
Drops below altitude 10° 18:45:12 10° 209° (SSW) 1,026 4.9 -8.6°
Sets 18:48:08 0° 166° (SSE) 1,828 5.4 -9.3°
